Temperature
6 6 5 5 5 5 5 5 4 3 3 4 4 4 4 4 4 4 4 4 4 4 4 4 4 4 4 4 4 4 4 4 4 4 4 4 3 3
5 5 5 5 5 5 5 4 4 4 3 3 3 3 3 3 3 3 3 4 4 3 3 3 3 3 3 3 3 3 3 3 3 3 3 3 3 3
4 4 4 4 4 4 4 4 3 3 3 3 3 3 3 3 3 3 3 3 3 3 3 3 3 3 3 3 3 3 2 2 2 2 2 2 2 2
4 4 4 4 4 4 3 3 3 3 3 2 2 2 2 2 2 2 3 3 2 2 2 2 2 2 2 2 2 2 2 2 2 2 2 2 1 1
3 3 3 3 3 3 3 3 3 2 2 2 2 2 2 2 2 2 2 2 2 2 2 2 2 2 2 1 1 1 1 1 1 1 1 1 1 1
3 3 3 3 3 3 2 2 2 2 2 1 1 1 1 1 1 1 1 1 1 1 1 1 1 1 1 1 1 1 1 1 1 1 0 0 0 0
2 2 2 2 2 2 2 2 2 1 1 1 1 1 1 1 1 1 1 1 1 1 1 1 1 1 1 1 1 0 0 0 0 0 -0 -0 -0 -0
2 2 2 2 2 2 1 1 1 1 1 0 0 0 0 0 -0 -0 -0 -0 -0 -0 -0 0 0 0 0 0 -0 -0 -0 -0 -0 -0 -0 -1 -1 -1
2 2 1 1 1 1 1 1 1 0 0 0 -0 -0 -0 -0 -1 -1 -1 -1 -1 -1 -1 -1 -0 -0 -0 -0 -0 -1 -1 -1 -1 -1 -1 -1 -1 -1
1 1 1 1 1 0 0 0 0 0 -0 -0 -0 -0 -1 -1 -1 -1 -1 -1 -1 -1 -2 -1 -1 -1 -1 -1 -1 -1 -1 -1 -1 -1 -1 -1 -1 -1
1 0 0 0 0 -0 -0 -0 -0 -0 -0 -1 -1 -1 -1 -1 -1 -1 -2 -2 -2 -1 -2 -2 -2 -2 -1 -1 -1 -1 -1 -2 -2 -2 -2 -2 -2 -2
0 -0 -0 -0 -0 -0 -0 -1 -1 -1 -1 -1 -1 -1 -1 -1 -1 -2 -2 -2 -2 -2 -2 -3 -2 -3 -3 -2 -2 -2 -2 -2 -2 -2 -2 -2 -2 -2
-0 -0 -0 -1 -1 -1 -1 -1 -1 -1 -1 -1 -1 -1 -1 -1 -2 -2 -2 -3 -3 -3 -3 -3 -3 -3 -4 -3 -2 -2 -2 -2 -2 -2 -2 -2 -3 -3
-1 -1 -1 -1 -1 -1 -1 -1 -1 -2 -2 -2 -2 -2 -2 -2 -2 -2 -2 -3 -3 -3 -3 -4 -4 -4 -4 -4 -3 -3 -3 -3 -3 -3 -3 -3 -3 -3
-1 -1 -1 -1 -2 -2 -2 -2 -2 -2 -2 -2 -2 -2 -2 -3 -3 -3 -3 -3 -3 -3 -4 -4 -4 -4 -4 -4 -4 -4 -3 -3 -3 -3 -3 -3 -4 -4
-2 -2 -2 -2 -2 -2 -2 -2 -2 -2 -2 -3 -3 -3 -3 -3 -3 -3 -3 -3 -4 -3 -4 -4 -4 -4 -4 -4 -4 -4 -4 -4 -4 -4 -4 -4 -4 -4
-2 -2 -2 -2 -2 -2 -2 -2 -3 -3 -3 -3 -3 -3 -3 -3 -3 -4 -4 -4 -4 -4 -4 -4 -4 -4 -5 -5 -5 -4 -4 -4 -4 -4 -4 -4 -4 -4
-3 -3 -2 -2 -3 -3 -3 -3 -3 -3 -3 -3 -3 -4 -4 -4 -4 -4 -4 -4 -4 -4 -4 -4 -5 -5 -5 -5 -4 -4 -4 -4 -5 -5 -5 -5 -5 -5
-3 -3 -3 -3 -3 -3 -3 -3 -3 -4 -4 -4 -4 -4 -4 -4 -4 -4 -5 -5 -5 -5 -5 -5 -5 -6 -6 -5 -5 -5 -5 -5 -5 -5 -5 -5 -5 -5
-3 -3 -3 -3 -4 -4 -4 -4 -4 -4 -4 -5 -5 -5 -5 -5 -5 -5 -5 -5 -5 -5 -5 -5 -5 -6 -6 -6 -6 -5 -5 -6 -5 -5 -5 -5 -5 -5
-3 -3 -4 -4 -4 -4 -4 -4 -5 -5 -5 -5 -5 -5 -5 -5 -5 -5 -5 -5 -6 -6 -6 -6 -5 -6 -6 -6 -6 -6 -5 -5 -6 -6 -6 -6 -6 -6
-4 -4 -4 -4 -4 -5 -5 -5 -5 -5 -5 -5 -5 -5 -5 -5 -6 -6 -6 -6 -6 -6 -6 -6 -6 -6 -6 -6 -6 -6 -6 -6 -6 -6 -6 -6 -6 -6
-4 -4 -4 -5 -5 -5 -5 -5 -5 -5 -5 -5 -5 -6 -6 -6 -6 -6 -6 -6 -6 -6 -6 -6 -6 -6 -6 -6 -6 -6 -6 -6 -6 -6 -6 -6 -6 -6
Wind_Speed
2 2 2 2 1 2 2 3 3 4 5 4 2 2 2 3 6 6 7 8 10 10 11 11 11 12 11 11 12 11 10 11 11 12 13 13 13 14
2 2 2 2 2 2 2 2 3 4 5 3 3 3 2 4 7 7 8 9 10 11 11 11 11 12 11 11 12 11 11 11 11 12 13 13 14 14
2 2 2 2 2 2 2 2 3 3 5 5 3 2 3 4 5 6 7 8 8 11 11 12 12 12 12 11 11 11 11 11 12 13 13 13 14 14
2 2 3 2 3 3 3 3 3 3 4 6 5 3 4 4 4 4 5 7 7 10 12 12 13 13 12 12 11 11 11 11 11 12 13 13 14 14
3 3 4 3 3 3 3 3 3 3 3 4 5 4 4 3 4 4 5 5 7 9 11 12 13 13 12 12 12 12 12 12 11 12 12 13 14 14
2 3 4 4 5 4 4 4 4 3 3 4 5 4 4 4 3 4 5 4 5 7 9 11 12 12 12 13 12 12 12 12 12 12 12 12 13 14
2 3 4 4 5 5 4 4 4 4 4 4 5 4 4 3 4 3 5 5 5 4 4 6 7 7 9 12 12 12 12 12 11 11 12 12 13 14
3 4 4 4 5 6 8 7 6 6 5 5 5 6 6 5 4 4 4 5 5 3 3 6 4 5 7 8 11 12 12 12 11 11 12 12 13 14
4 4 4 4 5 4 6 8 8 9 9 6 6 7 7 6 5 5 5 5 6 5 3 6 4 5 7 10 12 12 12 11 11 12 13 13 13 14
4 4 4 4 4 5 4 4 5 6 7 5 6 6 6 5 5 6 6 5 5 4 3 5 5 5 6 7 11 11 11 11 12 13 13 13 13 13
4 4 4 4 6 6 4 4 5 5 7 9 10 10 10 9 6 3 3 3 5 5 2 3 4 5 5 5 8 10 11 11 12 13 14 14 13 13
3 3 5 6 7 6 4 4 5 5 4 5 6 7 7 7 8 5 4 4 4 4 2 2 3 3 5 4 4 5 8 11 13 14 13 13 12 8
3 3 3 6 7 7 6 4 7 6 4 3 4 4 4 3 4 5 4 4 5 5 3 2 3 3 4 5 4 4 5 6 8 9 11 11 11 8
3 3 3 6 7 7 6 6 8 7 3 3 3 4 4 4 4 4 5 6 6 7 6 4 4 4 5 6 6 4 4 5 5 5 6 9 9 9
3 4 5 6 6 5 6 8 6 3 2 3 4 4 4 4 3 3 3 4 5 6 6 6 5 5 5 7 6 5 5 5 4 4 4 4 5 5
3 4 6 6 5 5 5 4 3 3 3 4 4 4 3 3 3 2 2 2 3 4 5 7 7 6 6 7 7 7 5 4 4 4 4 4 5 5
3 2 2 2 2 2 2 3 2 3 3 3 3 4 3 3 3 2 2 2 4 5 5 3 5 6 6 6 6 7 6 5 5 4 4 5 4 4
3 2 3 3 3 3 3 3 3 3 3 3 3 4 4 4 3 3 2 3 5 5 5 4 3 3 3 4 7 7 6 5 4 4 4 5 6 5
2 3 3 3 3 3 3 3 4 3 3 4 4 4 4 4 3 4 4 4 5 5 5 3 3 3 5 6 4 6 5 4 4 4 4 4 6 6
2 3 4 3 3 3 3 4 4 3 3 4 4 4 4 4 4 4 4 5 5 5 5 3 3 4 5 6 5 4 6 5 4 5 5 5 5 7
3 3 3 3 3 3 3 4 4 4 4 4 4 4 4 4 5 5 5 6 6 5 5 5 5 5 3 2 3 4 4 5 6 4 4 4 5 5
4 4 4 4 3 3 3 4 4 4 4 4 4 4 4 4 5 5 5 5 5 5 5 4 3 3 2 4 4 5 5 4 5 7 7 6 4 3
4 4 4 4 4 3 3 4 5 5 4 4 4 4 4 5 5 4 5 5 4 4 4 4 3 2 3 3 4 4 4 4 4 4 5 7 8 10
Wind_Direction
196 200 225 238 226 229 230 216 224 258 265 247 245 246 243 260 267 268 270 277 279 281 285 289 294 296 296 297 300 297 298 302 304 304 304 304 305 305
201 205 235 249 242 232 231 240 232 239 262 262 250 254 263 272 275 272 268 281 282 279 282 286 290 291 292 291 295 293 293 296 299 300 301 301 302 303
215 215 239 248 250 246 243 242 248 239 256 276 274 270 266 268 282 275 272 272 273 277 280 282 285 286 287 287 288 291 289 292 296 297 299 300 301 301
216 224 246 255 252 248 242 242 246 242 244 268 281 282 271 268 273 278 288 281 277 278 279 280 282 282 283 284 285 289 287 287 290 293 295 296 298 299
215 226 237 235 244 245 244 247 252 257 247 253 273 280 277 281 286 289 290 288 287 282 281 280 280 281 280 282 284 288 287 286 287 290 293 295 297 297
233 235 238 235 235 234 244 243 247 249 250 252 266 276 276 277 278 281 289 286 285 288 286 285 283 282 281 283 284 286 288 287 285 286 291 294 295 295
249 250 250 249 249 249 251 243 238 244 251 255 262 273 273 275 270 271 281 292 286 278 284 284 280 277 279 279 279 279 284 286 286 287 291 294 295 295
247 258 260 259 261 269 266 264 255 247 247 250 258 259 265 267 273 274 278 288 289 283 290 287 277 273 274 271 275 281 284 286 287 290 292 293 294 294
239 248 262 261 266 254 264 273 271 268 262 253 251 256 261 258 258 267 262 265 269 273 290 286 281 278 280 276 281 285 286 287 289 292 294 294 293 293
239 238 246 254 255 258 253 258 257 263 267 265 254 258 259 256 245 254 263 274 279 277 266 272 281 282 289 279 281 283 282 285 290 292 294 294 292 291
255 249 251 251 262 272 265 257 265 269 271 265 264 268 273 275 276 269 267 276 284 281 252 252 281 294 289 274 275 280 283 287 292 295 294 295 295 292
262 259 258 260 267 267 255 246 260 272 271 276 273 275 276 276 276 257 239 256 278 277 249 241 276 305 298 279 269 277 283 286 290 292 293 294 296 293
252 258 259 268 277 276 270 252 260 274 268 261 267 271 275 274 273 259 241 237 254 264 255 248 271 279 268 289 290 277 274 281 286 286 286 290 291 294
254 255 260 277 287 288 281 270 278 285 269 269 271 271 271 269 268 261 253 250 251 255 254 245 254 267 279 286 289 286 281 281 282 286 284 286 288 292
269 274 286 290 294 291 281 283 288 277 259 264 269 270 264 261 268 273 269 270 272 271 262 258 254 260 267 272 276 281 293 287 278 278 283 282 282 285
282 278 283 285 282 277 285 285 270 257 258 254 265 271 274 266 265 265 274 280 286 287 276 264 257 252 266 270 268 276 276 274 282 286 286 284 283 274
285 285 279 279 274 275 279 276 268 270 270 263 268 275 275 272 273 270 267 270 271 281 287 280 269 262 253 258 263 263 267 270 271 281 290 292 282 271
279 265 269 271 268 269 275 278 271 266 264 265 269 271 269 267 270 275 272 266 270 275 278 279 286 291 282 265 236 250 260 265 275 275 270 278 280 280
266 257 262 265 267 267 268 270 274 269 266 263 265 266 264 266 267 268 267 271 273 276 279 275 273 276 285 292 272 223 242 270 280 279 267 269 273 281
257 262 265 264 264 264 267 273 277 278 272 270 267 266 263 266 271 270 266 268 276 280 280 272 260 259 264 273 281 277 249 248 261 275 284 283 278 282
262 264 266 266 268 266 266 269 272 272 271 269 267 265 263 265 270 270 270 274 274 273 276 276 269 269 265 267 278 286 284 268 257 264 281 289 291 289
259 261 264 262 263 264 267 270 273 273 272 270 269 265 259 260 265 268 270 272 271 270 273 279 282 276 263 259 270 285 300 310 299 292 282 273 275 273
258 259 260 259 257 258 262 267 271 275 273 270 269 266 262 263 263 266 269 268 269 273 279 287 293 280 269 259 266 281 294 305 312 314 305 299 286 277
Height
1495 1495 1496 1496 1497 1498 1498 1499 1499 1496 1494 1495 1495 1496 1496 1495 1494 1493 1492 1491 1490 1489 1488 1487 1486 1485 1484 1484 1483 1482 1481 1480 1479 1477 1476 1475 1474 1472
1491 1491 1492 1492 1493 1493 1494 1494 1494 1494 1491 1490 1490 1491 1491 1490 1490 1489 1487 1486 1485 1484 1483 1482 1481 1480 1479 1478 1477 1477 1476 1475 1474 1472 1471 1470 1468 1467
1486 1487 1488 1488 1488 1489 1489 1489 1489 1489 1487 1485 1486 1486 1486 1485 1484 1484 1483 1481 1480 1479 1478 1476 1476 1475 1474 1473 1472 1471 1470 1469 1468 1467 1466 1464 1463 1461
1482 1483 1484 1484 1484 1484 1484 1484 1484 1484 1483 1481 1480 1481 1480 1480 1479 1478 1477 1476 1475 1474 1473 1472 1471 1469 1468 1468 1467 1466 1465 1464 1463 1461 1460 1459 1457 1456
1479 1479 1479 1480 1480 1480 1480 1479 1479 1479 1478 1477 1476 1476 1475 1475 1474 1473 1472 1471 1470 1468 1467 1466 1465 1464 1463 1462 1461 1460 1459 1458 1457 1455 1454 1453 1451 1450
1474 1475 1475 1475 1475 1475 1475 1474 1474 1474 1473 1472 1471 1471 1470 1470 1469 1467 1466 1465 1464 1463 1461 1460 1459 1458 1457 1456 1455 1454 1453 1452 1451 1450 1448 1447 1446 1444
1470 1471 1471 1471 1471 1471 1470 1470 1469 1469 1468 1468 1467 1466 1465 1464 1463 1462 1461 1459 1458 1457 1455 1454 1453 1452 1451 1450 1449 1448 1448 1447 1445 1444 1443 1441 1440 1438
1466 1466 1466 1467 1466 1466 1466 1465 1465 1464 1463 1463 1462 1461 1459 1459 1459 1458 1457 1455 1452 1452 1450 1448 1448 1446 1445 1444 1443 1443 1442 1441 1439 1438 1437 1435 1434 1432
1462 1462 1462 1462 1462 1461 1460 1460 1459 1459 1459 1459 1457 1456 1455 1454 1454 1453 1452 1450 1448 1447 1445 1442 1441 1440 1440 1439 1438 1437 1436 1435 1433 1432 1430 1429 1427 1426
1458 1458 1457 1457 1457 1456 1456 1455 1454 1454 1453 1453 1452 1451 1451 1450 1449 1449 1447 1445 1443 1442 1441 1438 1435 1435 1434 1433 1432 1431 1430 1429 1427 1425 1424 1422 1421 1420
1454 1453 1453 1452 1452 1452 1451 1450 1449 1448 1448 1448 1447 1446 1446 1445 1444 1443 1441 1440 1437 1436 1436 1434 1431 1429 1427 1427 1426 1425 1424 1423 1421 1419 1417 1416 1415 1414
1449 1449 1449 1448 1448 1447 1446 1445 1444 1443 1443 1442 1442 1441 1440 1439 1439 1438 1437 1435 1433 1431 1431 1430 1427 1426 1422 1420 1420 1420 1418 1417 1415 1413 1411 1410 1409 1408
1445 1445 1444 1444 1443 1443 1442 1441 1439 1439 1438 1437 1436 1435 1435 1434 1433 1433 1432 1431 1430 1428 1427 1426 1423 1422 1420 1416 1414 1414 1413 1411 1409 1407 1406 1406 1404 1403
1441 1441 1440 1439 1439 1438 1437 1436 1436 1435 1434 1433 1431 1430 1429 1429 1428 1428 1427 1426 1425 1424 1423 1422 1420 1418 1415 1412 1409 1408 1408 1406 1404 1402 1401 1401 1400 1399
1438 1437 1436 1435 1435 1434 1433 1432 1432 1431 1429 1428 1427 1426 1426 1425 1424 1423 1422 1421 1420 1419 1418 1417 1415 1413 1411 1409 1406 1404 1402 1400 1399 1398 1397 1396 1394 1393
1433 1433 1432 1431 1431 1430 1429 1428 1427 1426 1425 1424 1423 1422 1421 1420 1419 1418 1417 1416 1414 1413 1413 1412 1410 1409 1406 1404 1402 1399 1398 1396 1395 1394 1392 1391 1390 1389
1430 1429 1428 1427 1426 1425 1425 1424 1423 1423 1421 1420 1419 1418 1417 1416 1415 1414 1413 1412 1410 1408 1407 1406 1405 1403 1401 1400 1397 1395 1394 1392 1391 1390 1388 1386 1385 1385
1426 1425 1424 1423 1422 1421 1421 1420 1419 1418 1417 1416 1415 1414 1413 1412 1411 1410 1409 1407 1406 1404 1402 1401 1400 1397 1396 1394 1394 1391 1390 1388 1387 1386 1384 1382 1380 1380
1422 1421 1420 1419 1418 1418 1417 1416 1415 1414 1413 1412 1411 1410 1409 1408 1407 1406 1405 1403 1402 1400 1399 1397 1396 1394 1392 1389 1388 1388 1386 1384 1383 1381 1380 1378 1376 1375
1418 1417 1416 1415 1415 1414 1413 1412 1410 1409 1408 1408 1407 1406 1405 1404 1402 1401 1400 1399 1398 1396 1394 1393 1392 1391 1389 1387 1384 1383 1383 1381 1379 1377 1375 1374 1372 1371
1414 1413 1412 1412 1411 1410 1409 1408 1406 1405 1404 1403 1402 1401 1400 1399 1398 1397 1396 1395 1394 1392 1390 1389 1388 1387 1385 1384 1381 1379 1379 1378 1376 1374 1372 1370 1367 1365
1410 1409 1408 1408 1407 1406 1405 1404 1402 1401 1400 1399 1398 1397 1396 1395 1394 1393 1392 1390 1389 1388 1387 1386 1384 1383 1382 1380 1377 1375 1374 1373 1373 1371 1370 1368 1365 1362
1406 1405 1404 1404 1403 1402 1401 1399 1398 1397 1396 1395 1394 1393 1392 1391 1390 1389 1388 1387 1386 1384 1383 1382 1381 1380 1378 1377 1375 1373 1371 1370 1368 1367 1365 1364 1363 1361